Tracking 35237 objects as of 4-Sep-2026
HD Live streaming from Space Station
objects crossing your sky now

STARLINK-38028

Track STARLINK-38028 now!
10-day predictions
STARLINK-38028 is classified as:


NORAD ID: 100485
Int'l Code: 2026-196N
Launch date: August 25, 2026
Source: United States (US)
Launch site: AIR FORCE EASTERN TEST RANGE (AFETR)
Your satellite tracking list
Your tracking list is empty




NASA's NSSDC Master Catalog

Two Line Element Set (TLE):
1 A0485U 26196N   26246.66838130 -.00606445  12956-3 -14785-2 0  9996
2 A0485  53.1596 326.0573 0001390 114.8696 245.2477 15.95446930  2696
Source of the keplerian elements: AFSPC